Location: Balaclava NSW 2575, Australia
(34.4510°S, 150.4953°E)
Time: 08:03:23
(UTC+10:00)

ISS - Pass Details

Date: 23 May 2021
Orbit: 417 x 422 km, 51.6° (Epoch: 17 June)

Event Time Altitude Azimuth Distance (km) Brightness Sun altitude
Exits shadow 04:29:05 20° 76° (ENE) 1,056 -1.0 -28.7°
Drops below altitude 10° 04:30:53 10° 104° (ESE) 1,523 -0.1 -28.3°
Sets 04:33:17 0° 119° (ESE) 2,396 0.9 -27.9°
